This demonstration page uses our WeatherBlox Daily Observations layout. Learn more.

36.17497, -115.13722

Hourly Observations for March 16, 2018

Temp ( °F °C ) Dew Point ( °F °C ) Humidity (%) Winds ( mph kmh ) Pressure ( in mb ) Visibility ( mi km ) Precip ( " mm )
12:53 am 00:53 Clear 51 10.6 23 -5 33 33 S 10 17 29.93 1013 10 16.0934 0 0
1:53 am 01:53 Clear 50 10 22 -5.6 33 33 S 10 17 29.92 1013 10 16.0934 0 0
2:53 am 02:53 Clear 49 9.4 24 -4.4 38 38 S 9 15 29.92 1013 10 16.0934 0 0
3:53 am 03:53 Clear 49 9.4 25 -3.9 39 39 SSW 8 13 29.91 1013 10 16.0934 0 0
4:53 am 04:53 Clear 49 9.4 26 -3.3 41 41 S 13 20 29.91 1013 10 16.0934 0 0
5:53 am 05:53 Clear 48 8.9 27 -2.8 44 44 SSE 14 22 29.91 1013 10 16.0934 0 0
6:53 am 06:53 Sunny 48 8.9 27 -2.8 44 44 S 15 24 29.92 1013 10 16.0934 0 0
7:53 am 07:53 Sunny 50 10 27 -2.8 41 41 S 12 19 29.93 1013 10 16.0934 0 0
8:53 am 08:53 Sunny 52 11.1 27 -2.8 38 38 S 14 22 29.93 1014 10 16.0934 0 0
9:53 am 09:53 Sunny 54 12.2 26 -3.3 34 34 SSE 16 26 29.92 1013 10 16.0934 0 0
10:53 am 10:53 Sunny 57 13.9 24 -4.4 28 28 SSE 14 22 29.91 1013 10 16.0934 0 0
11:53 am 11:53 Sunny 60 15.6 18 -7.8 19 19 S 13 20 29.89 1012 10 16.0934 0 0
12:53 pm 12:53 Sunny 63 17.2 15 -9.4 15 15 S 20 31 29.85 1011 10 16.0934 0 0
1:53 pm 13:53 Sunny 66 18.9 8 -13.3 10 10 SW 18 30 29.81 1010 10 16.0934 0 0
2:53 pm 14:53 Sunny 67 19.4 6 -14.4 9 9 SW 22 35 29.79 1009 10 16.0934 0 0
3:53 pm 15:53 Sunny 66 18.9 5 -15 9 9 SW 17 28 29.77 1008 10 16.0934 0 0
4:53 pm 16:53 Sunny 65 18.3 16 -8.9 15 15 WSW 13 20 29.76 1008 10 16.0934 0 0
5:53 pm 17:53 Sunny 63 17.2 16 -8.9 16 16 WSW 16 26 29.76 1008 10 16.0934 0 0
6:53 pm 18:53 Clear 60 15.6 25 -3.9 26 26 SW 17 28 29.78 1008 10 16.0934 0 0
7:53 pm 19:53 Clear 59 15 27 -2.8 29 29 S 13 20 29.8 1009 10 16.0934 0 0
8:53 pm 20:53 Clear 58 14.4 28 -2.2 32 32 SSW 12 19 29.81 1009 10 16.0934 0 0
9:53 pm 21:53 Clear 57 13.9 27 -2.8 32 32 WSW 14 22 29.81 1010 10 16.0934 0 0
10:53 pm 22:53 Clear 56 13.3 30 -1.1 37 37 WSW 10 17 29.83 1010 10 16.0934 0 0
11:53 pm 23:53 Clear 54 12.2 32 0 43 43 WSW 17 28 29.82 1010 10 16.0934 0 0

Powered by AerisWeather